Regional Weather Roundup
Issued by NWS Kansas City/Pleasant Hill, MO

Home | Current Version | Previous Version | Text Only | Print | Product List | Glossary On
Versions: 1 2 3 4 5 6 7 8 9 10 11 12 13 14 15 16 17 18 19 20 21 22 23 24 25 26 27 28 29 30 31 32 33 34 35 36 37 38 39 40 41 42 43 44 45 46 47 48 49 50
000
ASUS43 KEAX 171004
RWREAX

WEATHER ROUNDUP FOR EASTERN KANSAS AND NORTHWEST MISSOURI
NATIONAL WEATHER SERVICE KANSAS CITY/PLEASANT HILL MO
500 AM CDT WED SEP 17 2014

KSZ040-057-103>105-MOZ028-029-037-043-171100-
...KANSAS CITY METROPOLITAN AREA...

CITY           SKY/WX    TMP DP  RH WIND       PRES   REMARKS
K.C. INTL      CLOUDY    63  60  90 SE6       29.93F
K.C. DOWNTOWN  CLOUDY    65  59  81 E5        29.92F
LEES SUMMIT    LGT RAIN  62  60  93 SE6       29.94F
OLATHE - IXD   TSTM      64  64 100 VRB3      29.97R VSB 1
OLATHE - OJC   TSTM      62  61  96 VRB3      29.94R FOG
LAWRENCE       CLOUDY    64  61  90 SE5       29.93F

$$

MOZ001>008-011>017-020>025-030>033-038>040-044>046-053-054-171100-
...NORTHERN AND CENTRAL MISSOURI...

CITY           SKY/WX    TMP DP  RH WIND       PRES   REMARKS
ST. JOSEPH     CLOUDY    63  59  87 SE3       29.93F
MOSBY          LGT RAIN  61  59  94 E5        29.94F
WHITEMAN AFB   PTCLDY    62  60  94 SE6       29.93F
CLINTON        CLOUDY    64  63  94 CALM      29.95F
SEDALIA        CLOUDY    63  60  90 SE7       29.96F
WARSAW         NOT AVBL
MARSHALL       CLOUDY    61  61 100 E5        29.97F
CHILLICOTHE      N/A     60  56  86 E5        29.97F
MOBERLY        CLOUDY    57  54  88 SE5       30.00
KIRKSVILLE     CLOUDY    55  53  93 SE5       30.01F

$$

MOZ041-047>049-056>058-063>065-088>090-097-171100-
...EASTERN AND SOUTHERN MISSOURI...

CITY           SKY/WX    TMP DP  RH WIND       PRES   REMARKS
ST. LOUIS INTL PTCLDY    54  51  90 CALM      30.05F
SPIRIT OF STL  FOG       48  47  96 CALM      30.04F VSB 3/4
COLUMBIA         N/A    N/A N/A N/A MISG      29.99F
JEFFERSON CITY MOCLDY    58  55  90 SE6       29.99F
ROLLA          CLOUDY    56  54  93 SE7       30.01F
LEBANON        CLOUDY    63  61  94 S8        29.99F FOG
OSAGE BEACH    CLOUDY    61  57  88 SE3       29.98F
SPRINGFIELD    CLOUDY    64  63  96 S12       29.98F FOG
BRANSON        FOG       64  63  94 SE6       30.01F VSB<1/4
NEVADA         LGT RAIN  64  63  94 SE7       29.92F
JOPLIN         PTCLDY    68  66  93 S13       29.95F
WEST PLAINS    CLOUDY    63  58  83 SE3       30.03F

$$

IAZ060-094-KSZ022-034>040-054-083-096-NEZ052-066-093-171100-
...KANSAS...SOUTHEAST NEBRASKA AND IOWA...

CITY           SKY/WX    TMP DP  RH WIND       PRES   REMARKS
TOPEKA         CLOUDY    65  64  97 NE5       29.91F
MANHATTAN      CLOUDY    68  65  90 SW6       29.89F
EMPORIA        CLOUDY    65  64  97 S9        29.91F FOG
CHANUTE        CLOUDY    67  66  97 S10       29.92F FOG
WICHITA        MOCLDY    67  65  93 S8        29.93F FOG
OMAHA          MOCLDY    61  53  75 SE6       29.94F
LINCOLN        CLEAR     55  51  86 E3        29.94F
FALLS CITY     CLOUDY    61  57  87 E3        29.92F
LAMONI         CLOUDY    57  52  83 SE6       29.97F
DES MOINES     CLOUDY    56  50  80 S7        29.98F

$$



USA.gov is the U.S. government's official web portal to all federal, state and local government web resources and services.